Regional Weather Roundup
Issued by NWS

Home | Current Version | Previous Version | Graphics & Text | Print | Product List | Glossary On
Versions: 1 2 3 4 5 6 7 8 9 10 11 12 13 14 15 16 17 18 19 20 21 22 23 24 25 26 27 28 29 30 31 32 33 34 35 36 37 38 39 40 41 42 43 44 45 46 47 48 49 50
000
ASUS45 KCYS 251110
RWRWY

WYOMING REGIONAL WEATHER ROUNDUP
NATIONAL WEATHER SERVICE CHEYENNE WY
500 AM MDT TUE JUL 25 2017

NOTE:  "FAIR" INDICATES FEW OR NO CLOUDS BELOW 12,000 FEET
WITH NO SIGNIFICANT WEATHER AND/OR OBSTRUCTIONS TO VISIBILITY.

WYZ001-251200-
YELLOWSTONE NATIONAL PARK

CITY           SKY/WX    TMP DP  RH WIND       PRES   REMARKS
LK YELLOWSTONE   N/A     43  42  97 CALM      30.29S
W YELLOWSTONE  NOT AVBL

$$
WYZ002>013-054>058-071-098>099-251200-
NORTHERN WYOMING

CITY           SKY/WX    TMP DP  RH WIND       PRES   REMARKS
JACKSON        FAIR      52  45  76 N5        30.20R
CODY           FAIR      70  40  33 CALM      30.08R
GREYBULL       FAIR      66  32  28 SE5       29.96R
WORLAND        FAIR      59  40  49 CALM      29.98R
SHERIDAN       FAIR      63  50  62 CALM      29.98R
BUFFALO        FAIR      68  45  43 NW6       30.06R
GILLETTE       FAIR      61  52  72 NW5       29.97S
HULETT         FAIR      68  54  60 E6        29.98F
NEWCASTLE      FAIR      64  43  45 N8        29.95R

$$
WYZ014>020-022>026-101>103-251200-
CENTRAL WYOMING

CITY           SKY/WX    TMP DP  RH WIND       PRES   REMARKS
BIG PINEY      CLOUDY    56  45  66 W10       30.20R
PINEDALE       FAIR      55  43  62 W5        30.21S
DUBOIS         PTSUNNY   57  34  41 NW10      30.20S
LANDER         FAIR      62  40  44 NE3       30.07R
RIVERTON       FAIR      69  36  29 SW8       30.08R
CASPER         FAIR      57  43  59 CALM      30.07R
DOUGLAS        FAIR      65  43  44 N8        30.01R

$$
WYZ021-027>030-104>119-251200-
SOUTHERN WYOMING

CITY           SKY/WX    TMP DP  RH WIND       PRES   REMARKS
EVANSTON       LGT RAIN  58  54  86 S13       30.25R
KEMMERER         N/A     63  45  51 SW3       30.25R
FORT BRIDGER   PTSUNNY   64  50  62 W12       30.25R
ROCK SPRINGS   FAIR      68  46  45 SW14      30.21R
RAWLINS        FAIR      67  49  52 SW24G31   30.20R
SARATOGA       FAIR      68  46  45 SW14G23   30.21R
LARAMIE        FAIR      57  43  59 SE5       30.21R
CHEYENNE       FAIR      62  42  47 W7        30.11S
TORRINGTON     FAIR      70  51  51 SE6       29.94S
PINE BLUFFS    FAIR      63  52  67 W6        30.05R

$$



USA.gov is the U.S. government's official web portal to all federal, state and local government web resources and services.